Retour au catalogue

ONEWEB-0369

ActifCommunicationsPO
NORAD 49295·PAYLOAD·🇬🇧 United Kingdom

Lancé Oct 14, 2021 depuis Vostochny Cosmodrome

Loading…

Prochains Passages (prochaines 24 heures)

TLE

FraisSource: CelesTrak SupGP

Époque: Sep 14, 2026, 17:52 UTC

1 49295C 21090S   26257.74496944 -.00002610  00000+0 -65262-2 0  2570
2 49295  87.9103 287.1320 0002378  96.1618  14.8880 13.19726991    11

Suivez ONEWEB-0369 en temps réel avec AllMySat

Download on the App Store